[[{"header":{"parameterUnit":"m.s-1","parameterCategory":2,"la1":30.2991,"la2":30.254,"lo1":-89.0895,"lo2":-89.0444,"dy":0.0017,"dx":0.0017,"nx":28,"ny":28,"refTime":"2024-12-06T03:00:00:Z","depth":"0","parameterNumber":2,"parameterNumberName":"U-component_of_CURRENTS"},"data":[0,0,0,0,0,0,0,0,0,0,0,0,0,0,0,0,0,0,0,0,0,0,0,0,0,0,0,0,0,0,0,0,0,0,0,0,0,0,0,0,0,0,0,0,0,0,0,0,0,0,0,0,0,0,0,0,0,0,0.2194,0.2194,0,0.2188,0.2188,0.2188,0.2169,0.2169,0.2169,0.2169,0.2131,0.213,0.2129,0,0,0,0,0,0,0,0,0,0,0,0,0,0.2162,0.2163,0.2194,0.2194,0.2194,0.2188,0.2188,0.2188,0.2169,0.2169,0.2169,0.2169,0.2131,0.213,0.2129,0,0,0,0,0,0,0,0,0,0,0,0,0,0.2165,0.2163,0.2194,0.2187,0.2187,0.2189,0.2188,0.2187,0.2169,0.2169,0.2169,0.2169,0.2132,0.213,0.2129,0.2123,0,0,0.2125,0.2124,0,0,0,0,0,0,0,0,0.2165,0.2166,0.2188,0.2188,0.2187,0.2182,0.2163,0.2166,0.2169,0.2172,0.2169,0.2169,0.2148,0.2145,0.214,0.2121,0.212,0.2125,0.2124,0.2123,0.2123,0,0,0,0,0,0,0,0.2165,0.2166,0.2188,0.2188,0.2188,0.2176,0.2176,0.2163,0.2157,0.2172,0.2171,0.2177,0.2147,0.2141,0.2139,0.2119,0.2125,0.2123,0.2122,0.2122,0.2128,0.2128,0,0,0,0,0,0,0.2174,0.2166,0.2188,0.2188,0.2179,0.2177,0.2177,0.2181,0.2158,0.2156,0.2177,0.2176,0.2143,0.214,0.2137,0.2156,0.2123,0.2122,0.2121,0.2127,0.2128,0.2129,0,0,0,0,0,0,0.2173,0.2176,0.2189,0.2179,0.2181,0.2178,0.2183,0.2181,0.2182,0.2163,0.2159,0.218,0.2143,0.2139,0.2136,0.2153,0.2121,0.212,0.2125,0.2127,0.2128,0.2176,0,0,0,0,0,0,0.2172,0.2176,0.2178,0.218,0.2182,0.2199,0.2183,0.2181,0.2186,0.2185,0.2164,0.216,0.2143,0.2138,0.2135,0.2151,0.2119,0.2124,0.2126,0.2128,0.2173,0.2179,0.2184,0,0,0,0,0,0.2171,0.2175,0.2178,0.218,0.2186,0.22,0.2199,0.2194,0.2187,0.2192,0.2179,0.2161,0.2148,0.2138,0.2133,0.215,0.2123,0.2126,0.2128,0.2171,0.2178,0.2184,0,0,0,0,0,0,0.2154,0.2174,0.2177,0.2184,0.2197,0.2198,0.2201,0.22,0.2193,0.219,0.2168,0.2164,0.217,0.2154,0.2144,0.2158,0.2135,0.2136,0.2169,0.2176,0.2181,0.219,0.2118,0,0,0,0,0,0.2156,0.2167,0.2184,0.2189,0.2199,0.2202,0.2205,0.2207,0.2204,0.2201,0.2188,0.2178,0.2175,0.2171,0.2164,0.2166,0.2176,0.2176,0.2181,0.2186,0.2192,0.2225,0.2234,0.2136,0.2136,0.2136,0,0,0.2148,0.2163,0.2166,0.2188,0.2194,0.221,0.2202,0.2215,0.2225,0.2198,0.2201,0.2195,0.2181,0.2188,0.219,0.2176,0.2222,0.2189,0.2193,0.2196,0.2228,0.2238,0.2246,0.2138,0.2137,0.2137,0,0,0.2144,0.2157,0.2168,0.2186,0.2209,0.2216,0.2225,0.2235,0.2238,0.2243,0.2233,0.2241,0.2224,0.2228,0.2224,0.2256,0.2251,0.2252,0.2283,0.2315,0.2323,0.2331,0.237,0.238,0.2253,0.2253,0.2253,0,0.2133,0.2154,0.2172,0.2193,0.2209,0.2223,0.2241,0.2248,0.2255,0.2264,0.225,0.2257,0.2246,0.2267,0.2278,0.2268,0.2287,0.2258,0.2323,0.233,0.2337,0.2375,0.2386,0.2255,0.2255,0.2255,0.2254,0,0.2145,0.2163,0.2173,0.2207,0.2226,0.2246,0.2269,0.2283,0.2287,0.2296,0.2318,0.231,0.2316,0.2318,0.2304,0.2349,0.2348,0.2328,0.2307,0.235,0.2387,0.2398,0.2259,0.2258,0.2257,0.2257,0,0,0.2111,0.217,0.2172,0.2192,0.2238,0.2251,0.2283,0.2316,0.2335,0.2345,0.2374,0.2378,0.2382,0.238,0.2374,0.2399,0.2466,0.2385,0.2386,0.2426,0.2549,0.2549,0.256,0.2458,0.246,0.2461,0.2561,0,0.2113,0.2154,0.2185,0.2216,0.224,0.2275,0.2303,0.2335,0.2357,0.2387,0.2403,0.2422,0.2403,0.2411,0.2438,0.2458,0.2494,0.2442,0.25,0.2502,0.2498,0.2572,0.2486,0.2567,0.2571,0.2573,0.2574,0,0.2107,0.2142,0.2177,0.2231,0.2244,0.2263,0.2316,0.2342,0.2398,0.242,0.2455,0.2467,0.2515,0.2486,0.2557,0.2525,0.2546,0.2559,0.2562,0.2551,0.2521,0.2522,0.2586,0.2535,0.259,0.2589,0.2588,0,0.2069,0.2127,0.2156,0.2176,0.2241,0.226,0.2291,0.2347,0.2377,0.2444,0.2478,0.2528,0.2562,0.2596,0.2631,0.2599,0.2713,0.2668,0.2692,0.2692,0.2625,0.2616,0.2645,0.2726,0.2726,0.2726,0.2726,0,0.2054,0.2071,0.2139,0.2153,0.2181,0.2238,0.227,0.2312,0.2384,0.2424,0.2488,0.2536,0.2591,0.2656,0.2671,0.2732,0.2751,0.2722,0.2725,0.264,0.2632,0.2587,0.2554,0.273,0.2729,0.2728,0.2727,0,0.1997,0.2046,0.2073,0.2143,0.216,0.2174,0.2244,0.2273,0.2356,0.2416,0.2444,0.2561,0.2657,0.2719,0.2794,0.279,0.2774,0.285,0.2756,0.2746,0.2695,0.2667,0.2626,0.2539,0.2888,0.2889,0.289,0,0.1969,0.1983,0.2043,0.2056,0.2081,0.2119,0.2146,0.2235,0.2278,0.2422,0.2452,0.2585,0.2665,0.2808,0.2844,0.2908,0.2811,0.2848,0.2764,0.2708,0.2679,0.2578,0.2498,0.27,0.2699,0.2699,0.2698,0,0.1913,0.1934,0.1959,0.1994,0.2017,0.2043,0.2097,0.2128,0.2242,0.2321,0.2439,0.2524,0.2692,0.2739,0.2845,0.286,0.2723,0.2833,0.2792,0.2563,0.2434,0.2346,0.2627,0.2691,0.2691,0.2692,0.2692,0.2693,0.1856,0.1859,0.1899,0.1917,0.1946,0.1963,0.1958,0.2038,0.2105,0.2197,0.2345,0.2447,0.2596,0.2744,0.2752,0.2737,0.2694,0.2654,0.2638,0.255,0.2422,0.2702,0.2753,0.2754,0.2755,0.2756,0.2757,0,0.1781,0.1803,0.1825,0.1844,0.1839,0.1881,0.1919,0.191,0.1952,0.2085,0.2181,0.2353,0.2438,0.2547,0.2629,0.2559,0.242,0.2488,0.2312,0.2248,0.2526,0.2473,0.2442,0.2442,0.2443,0.2443,0.2443,0.2443,0.1745,0.1738,0.1755,0.1728,0.174,0.1701,0.1696,0.1709,0.1781,0.1875,0.1978,0.2102,0.2374,0.2541,0.2526,0.2454,0.2246,0.2166,0.2137,0.2335,0.2348,0.236,0.2303,0.2238,0.2238,0.1759,0.1756,0.1753]},{"header":{"parameterUnit":"m.s-1","parameterCategory":2,"la1":30.2991,"la2":30.254,"lo1":-89.0895,"lo2":-89.0444,"dy":0.0017,"dx":0.0017,"nx":28,"ny":28,"refTime":"2024-12-06T03:00:00:Z","depth":"0","parameterNumber":3,"parameterNumberName":"V-component_of_CURRENTS"},"data":[0,0,0,0,0,0,0,0,0,0,0,0,0,0,0,0,0,0,0,0,0,0,0,0,0,0,0,0,0,0,0,0,0,0,0,0,0,0,0,0,0,0,0,0,0,0,0,0,0,0,0,0,0,0,0,0,0,0,-0.0429,-0.0429,0,-0.0467,-0.0467,-0.0467,-0.0484,-0.0484,-0.0484,-0.0484,-0.0515,-0.0516,-0.0517,0,0,0,0,0,0,0,0,0,0,0,0,0,-0.0376,-0.0377,-0.0429,-0.0429,-0.043,-0.0467,-0.0467,-0.0467,-0.0484,-0.0484,-0.0484,-0.0484,-0.0515,-0.0516,-0.0517,0,0,0,0,0,0,0,0,0,0,0,0,0,-0.0404,-0.0377,-0.0428,-0.0443,-0.0445,-0.0466,-0.0467,-0.0467,-0.0484,-0.0484,-0.0484,-0.0484,-0.0515,-0.0516,-0.0517,-0.0523,0,0,-0.0521,-0.0521,0,0,0,0,0,0,0,0,-0.0402,-0.0406,-0.0441,-0.0442,-0.0444,-0.0472,-0.046,-0.0486,-0.0484,-0.0468,-0.0484,-0.0484,-0.0501,-0.0503,-0.0509,-0.0524,-0.0526,-0.0521,-0.0522,-0.0522,-0.0522,0,0,0,0,0,0,0,-0.0401,-0.0404,-0.0443,-0.0441,-0.0444,-0.045,-0.0454,-0.0465,-0.0483,-0.047,-0.0471,-0.0477,-0.0502,-0.0508,-0.051,-0.0526,-0.0521,-0.0522,-0.0523,-0.0523,-0.0549,-0.0549,0,0,0,0,0,0,-0.0398,-0.0403,-0.0441,-0.0444,-0.0424,-0.0451,-0.0455,-0.0462,-0.0483,-0.0486,-0.0477,-0.0478,-0.0505,-0.0508,-0.0511,-0.051,-0.0522,-0.0523,-0.0524,-0.0549,-0.0549,-0.0549,0,0,0,0,0,0,-0.0396,-0.0401,-0.044,-0.0425,-0.043,-0.0452,-0.0459,-0.0463,-0.0468,-0.0489,-0.0492,-0.0479,-0.0506,-0.0509,-0.0517,-0.0511,-0.0524,-0.0525,-0.0549,-0.0549,-0.0549,-0.0513,0,0,0,0,0,0,-0.0395,-0.04,-0.04,-0.0425,-0.0431,-0.0446,-0.0459,-0.0463,-0.0472,-0.0473,-0.0491,-0.0494,-0.0506,-0.0515,-0.0518,-0.0513,-0.0526,-0.0549,-0.0549,-0.0549,-0.0514,-0.0512,-0.051,0,0,0,0,0,-0.0393,-0.0389,-0.04,-0.0405,-0.0432,-0.0446,-0.0449,-0.0465,-0.0472,-0.047,-0.0484,-0.0494,-0.0517,-0.0516,-0.052,-0.0515,-0.0549,-0.0549,-0.0549,-0.0515,-0.0512,-0.051,0,0,0,0,0,0,-0.036,-0.0391,-0.0404,-0.0408,-0.0425,-0.0449,-0.0448,-0.0462,-0.0473,-0.0473,-0.0493,-0.0496,-0.0503,-0.0515,-0.0513,-0.0523,-0.0535,-0.0536,-0.0509,-0.0506,-0.0504,-0.0485,-0.0527,0,0,0,0,0,-0.0356,-0.0362,-0.0392,-0.0393,-0.0402,-0.0426,-0.0433,-0.0445,-0.046,-0.0465,-0.0479,-0.0494,-0.0506,-0.051,-0.0523,-0.0526,-0.0539,-0.0527,-0.0525,-0.0522,-0.051,-0.0535,-0.0534,-0.0549,-0.0549,-0.0549,0,0,-0.0343,-0.036,-0.0364,-0.0387,-0.0401,-0.0403,-0.043,-0.0438,-0.0436,-0.0466,-0.0465,-0.0487,-0.0506,-0.0511,-0.0515,-0.0518,-0.0525,-0.0522,-0.052,-0.0509,-0.0535,-0.0533,-0.0532,-0.0549,-0.0549,-0.0549,0,0,-0.0316,-0.0337,-0.0333,-0.0347,-0.0369,-0.0384,-0.0386,-0.0411,-0.0418,-0.0426,-0.0447,-0.0464,-0.0482,-0.0493,-0.0501,-0.0494,-0.0514,-0.0503,-0.0472,-0.0496,-0.0495,-0.0494,-0.0504,-0.0504,-0.0498,-0.0498,-0.0498,0,-0.0297,-0.03,-0.0332,-0.0332,-0.0334,-0.0372,-0.0362,-0.0377,-0.04,-0.0401,-0.0419,-0.0449,-0.0471,-0.0472,-0.0472,-0.0488,-0.0502,-0.0479,-0.0492,-0.0492,-0.0491,-0.0502,-0.0503,-0.0497,-0.0497,-0.0497,-0.0497,0,-0.027,-0.0273,-0.027,-0.0282,-0.0288,-0.0287,-0.0313,-0.0318,-0.0337,-0.0353,-0.0366,-0.0402,-0.0416,-0.0432,-0.045,-0.0456,-0.0467,-0.0489,-0.0496,-0.0488,-0.05,-0.0501,-0.0494,-0.0495,-0.0495,-0.0496,0,0,-0.0223,-0.0246,-0.0243,-0.0237,-0.0261,-0.0258,-0.0258,-0.0264,-0.0254,-0.0292,-0.0282,-0.0323,-0.0351,-0.0362,-0.0394,-0.0418,-0.0434,-0.0448,-0.045,-0.0452,-0.0478,-0.0469,-0.047,-0.0462,-0.0462,-0.0462,-0.0485,0,-0.0188,-0.0173,-0.0195,-0.0168,-0.016,-0.0189,-0.0181,-0.0193,-0.0211,-0.0213,-0.0261,-0.027,-0.0321,-0.033,-0.0362,-0.0412,-0.0436,-0.0425,-0.0491,-0.0492,-0.0481,-0.0471,-0.0459,-0.0477,-0.0487,-0.0487,-0.0487,0,-0.0148,-0.0144,-0.0118,-0.0108,-0.0106,-0.0097,-0.0083,-0.0082,-0.0104,-0.0123,-0.0151,-0.0188,-0.0222,-0.0274,-0.0351,-0.0341,-0.0404,-0.045,-0.0453,-0.0455,-0.0486,-0.049,-0.048,-0.0616,-0.049,-0.0489,-0.0489,0,-0.009,-0.0082,-0.0055,-0.0055,-0.0056,-0.0042,-0.0041,-0.0053,-0.0037,-0.0065,-0.006,-0.0117,-0.0133,-0.0222,-0.0316,-0.0336,-0.0399,-0.0442,-0.0492,-0.0491,-0.0498,-0.0497,-0.062,-0.0501,-0.0501,-0.0501,-0.0501,0,-0.0041,-0.0016,-0.0026,-0.001,0.0033,0.0011,0.005,0.0041,0.0039,0.0071,-0.0008,0.001,-0.0122,-0.0174,-0.0282,-0.0375,-0.0375,-0.0475,-0.0495,-0.0484,-0.0483,-0.0615,-0.0701,-0.0502,-0.0502,-0.0501,-0.0501,0,0.0019,0.0009,0.0044,0.0051,0.006,0.009,0.0112,0.014,0.0123,0.0163,0.016,0.0113,0.005,-0.0078,-0.0205,-0.0311,-0.0493,-0.0454,-0.0422,-0.0438,-0.0616,-0.07,-0.0844,-0.09,-0.0514,-0.0514,-0.0514,0,0.0051,0.0072,0.0097,0.0124,0.0129,0.0162,0.019,0.0183,0.0218,0.0238,0.0273,0.0228,0.0222,0.0043,-0.0151,-0.0324,-0.0476,-0.0446,-0.049,-0.0614,-0.0723,-0.0798,-0.0839,-0.0486,-0.0486,-0.0486,-0.0485,0,0.0111,0.0116,0.0142,0.0196,0.0232,0.0274,0.0314,0.0359,0.0367,0.0409,0.047,0.0472,0.0308,0.0156,-0.0092,-0.0236,-0.0547,-0.0446,-0.0592,-0.072,-0.0792,-0.0857,-0.0477,-0.0483,-0.0483,-0.0484,-0.0484,-0.0484,0.016,0.0188,0.022,0.0275,0.0319,0.0385,0.0431,0.0491,0.0571,0.0645,0.0635,0.0663,0.0411,0.0087,-0.0119,-0.0507,-0.0532,-0.0638,-0.0729,-0.0793,-0.0851,-0.0452,-0.0471,-0.0471,-0.0472,-0.0472,-0.0472,0,0.0222,0.0247,0.0298,0.0358,0.0417,0.0427,0.0516,0.0571,0.0683,0.0763,0.0819,0.0718,0.0409,0.0057,-0.0448,-0.0736,-0.0859,-0.091,-0.103,-0.1059,-0.0716,-0.0718,-0.077,-0.0769,-0.0769,-0.0769,-0.0769,-0.0769,0.0254,0.0312,0.033,0.043,0.0475,0.0557,0.0611,0.0705,0.0779,0.0876,0.0899,0.0892,0.0625,-0.0267,-0.0903,-0.1062,-0.1281,-0.133,-0.1437,-0.1226,-0.1208,-0.1191,-0.1214,-0.1368,-0.1369,-0.1737,-0.1741,-0.1744]}],[{"header":{"parameterUnit":"m.s-1","parameterCategory":2,"la1":30.2991,"la2":30.254,"lo1":-89.0895,"lo2":-89.0444,"dy":0.0017,"dx":0.0017,"nx":28,"ny":28,"refTime":"2024-12-06T03:00:00:Z","depth":"2","parameterNumber":2,"parameterNumberName":"U-component_of_CURRENTS"},"data":[0,0,0,0,0,0,0,0,0,0,0,0,0,0,0,0,0,0,0,0,0,0,0,0,0,0,0,0,0,0,0,0,0,0,0,0,0,0,0,0,0,0,0,0,0,0,0,0,0,0,0,0,0,0,0,0,0,0,0.2101,0.2101,0,0.2103,0.2103,0.2103,0.2101,0.2101,0.2101,0.2101,0.2088,0.2088,0.2087,0,0,0,0,0,0,0,0,0,0,0,0,0,0.2067,0.2067,0.2101,0.2101,0.2101,0.2103,0.2103,0.2103,0.2101,0.2101,0.2101,0.2101,0.2088,0.2088,0.2087,0,0,0,0,0,0,0,0,0,0,0,0,0,0.2075,0.2067,0.2101,0.2101,0.2101,0.2103,0.2103,0.2103,0.2101,0.2101,0.2101,0.2101,0.2088,0.2088,0.2087,0.2082,0,0,0.2085,0.2085,0,0,0,0,0,0,0,0,0.2075,0.2076,0.2101,0.2101,0.2101,0.2103,0.2086,0.2096,0.21,0.2099,0.2101,0.2101,0.2092,0.2092,0.209,0.2082,0.2081,0.2085,0.2085,0.2085,0.2085,0,0,0,0,0,0,0,0.2074,0.2076,0.21,0.2101,0.2101,0.2092,0.2093,0.2088,0.2094,0.2099,0.21,0.2102,0.2092,0.2091,0.209,0.2081,0.2085,0.2085,0.2085,0.2084,0.2113,0.2114,0,0,0,0,0,0,0.2078,0.2076,0.21,0.21,0.2089,0.2093,0.2094,0.2101,0.2095,0.2094,0.2102,0.2102,0.2092,0.209,0.2089,0.2123,0.2085,0.2084,0.2084,0.2112,0.2113,0.2114,0,0,0,0,0,0,0.2077,0.2081,0.21,0.2089,0.2091,0.2093,0.2101,0.2101,0.2112,0.2097,0.2096,0.2114,0.2092,0.209,0.2098,0.2121,0.2084,0.2084,0.211,0.2112,0.2114,0.2166,0,0,0,0,0,0,0.2077,0.208,0.2086,0.2089,0.2092,0.2113,0.2101,0.2101,0.2113,0.2113,0.2107,0.2105,0.2091,0.2099,0.2098,0.212,0.2083,0.2109,0.2111,0.2113,0.2162,0.2169,0.2174,0,0,0,0,0,0.2075,0.2083,0.2086,0.2089,0.21,0.2114,0.2114,0.2115,0.2114,0.2123,0.212,0.2106,0.2111,0.21,0.2097,0.212,0.2108,0.2111,0.2113,0.216,0.2168,0.2174,0,0,0,0,0,0,0.2067,0.2084,0.2087,0.2099,0.2112,0.2114,0.2123,0.2124,0.2128,0.213,0.2115,0.2113,0.2131,0.2119,0.2106,0.2135,0.2109,0.2112,0.2146,0.2153,0.2159,0.2163,0.2083,0,0,0,0,0,0.2069,0.2083,0.2096,0.2107,0.2117,0.2123,0.2129,0.2132,0.2136,0.2138,0.2134,0.2132,0.2138,0.214,0.2139,0.2151,0.2155,0.2166,0.2172,0.2177,0.218,0.221,0.2219,0.2122,0.2122,0.2122,0,0,0.2067,0.208,0.2086,0.2107,0.2117,0.2133,0.2127,0.2144,0.2157,0.2136,0.2152,0.2152,0.2146,0.2163,0.217,0.2156,0.2209,0.218,0.2184,0.2184,0.2214,0.2223,0.2232,0.2124,0.2124,0.2123,0,0,0.207,0.2086,0.2099,0.2116,0.2138,0.2145,0.2155,0.2168,0.2177,0.2191,0.2186,0.2201,0.22,0.2206,0.2208,0.2245,0.224,0.2248,0.2279,0.2309,0.2317,0.2325,0.2354,0.2363,0.225,0.225,0.225,0,0.2065,0.2086,0.2104,0.2124,0.2139,0.2155,0.2172,0.2186,0.2198,0.2211,0.2203,0.2226,0.2222,0.225,0.2265,0.2259,0.2275,0.2252,0.2317,0.2324,0.2331,0.2359,0.2369,0.2252,0.2252,0.2252,0.2252,0,0.2077,0.2099,0.2112,0.2144,0.2162,0.2183,0.2206,0.2226,0.2238,0.2249,0.2282,0.2282,0.2297,0.2303,0.2294,0.2342,0.2339,0.2323,0.23,0.2344,0.2371,0.238,0.2257,0.2256,0.2255,0.2254,0,0,0.2052,0.2109,0.2115,0.2133,0.2176,0.219,0.2226,0.2259,0.2284,0.2303,0.2336,0.2355,0.2362,0.2365,0.2365,0.239,0.2453,0.238,0.238,0.2409,0.2528,0.25,0.2507,0.2452,0.2454,0.2455,0.2532,0,0.2057,0.2096,0.2125,0.216,0.2181,0.2216,0.2249,0.2282,0.231,0.2346,0.2368,0.2397,0.2385,0.2399,0.2427,0.2448,0.2479,0.2434,0.2479,0.2481,0.2451,0.2516,0.2321,0.2371,0.254,0.2542,0.2543,0,0.2053,0.2084,0.212,0.2174,0.2188,0.2213,0.2269,0.2298,0.2358,0.2384,0.2423,0.244,0.2491,0.2468,0.2536,0.2511,0.2526,0.2537,0.254,0.25,0.247,0.2352,0.2381,0.2558,0.2557,0.2556,0.2555,0,0.2017,0.2076,0.2104,0.2123,0.2188,0.2213,0.2248,0.2307,0.2341,0.241,0.2447,0.25,0.2538,0.2568,0.2598,0.2576,0.2668,0.2636,0.2625,0.2624,0.2458,0.2439,0.2684,0.2684,0.2683,0.2683,0.2683,0,0.2001,0.2024,0.2092,0.2106,0.2142,0.2196,0.2239,0.2284,0.2358,0.2399,0.2463,0.2505,0.2567,0.2621,0.2631,0.2668,0.2699,0.2649,0.2648,0.2472,0.2454,0.2607,0.2597,0.2686,0.2685,0.2685,0.2684,0,0.1951,0.1998,0.2029,0.2101,0.2122,0.2145,0.2225,0.2257,0.2342,0.24,0.2428,0.2534,0.261,0.2664,0.2726,0.2715,0.2744,0.2743,0.2537,0.2511,0.267,0.2662,0.2745,0.2744,0.2744,0.2744,0.2744,0,0.1928,0.194,0.2006,0.2023,0.2055,0.2103,0.2135,0.2228,0.2268,0.2401,0.2426,0.254,0.259,0.2694,0.2707,0.2743,0.2762,0.2569,0.2487,0.2689,0.268,0.2672,0.2664,0.2291,0.2287,0.2284,0.2281,0,0.1879,0.1904,0.1931,0.1969,0.2002,0.2035,0.2094,0.2121,0.223,0.2293,0.2377,0.2433,0.2558,0.2515,0.2586,0.2571,0.2549,0.2508,0.2777,0.231,0.2268,0.2257,0.2263,0.2253,0.2256,0.2258,0.226,0.2261,0.1835,0.1841,0.1879,0.1903,0.1938,0.1956,0.1954,0.202,0.2066,0.2127,0.2248,0.2271,0.2337,0.2348,0.2304,0.2286,0.2454,0.2334,0.234,0.235,0.2289,0.2249,0.2219,0.2222,0.2224,0.2226,0.2228,0,0.1767,0.1788,0.1813,0.1834,0.1831,0.1883,0.1914,0.1891,0.1897,0.1977,0.203,0.1924,0.1927,0.1985,0.193,0.1965,0.1912,0.1874,0.1773,0.1805,0.1832,0.1739,0.1526,0.1524,0.1521,0.1519,0,0,0.1734,0.1728,0.174,0.1714,0.1732,0.17,0.1693,0.1672,0.17,0.1672,0.1673,0.1825,0.1929,0.1685,0.1686,0.1587,0.1669,0.153,0.2103,0.2015,0.2038,0.2122,0.202,0,0,0,0,0]},{"header":{"parameterUnit":"m.s-1","parameterCategory":2,"la1":30.2991,"la2":30.254,"lo1":-89.0895,"lo2":-89.0444,"dy":0.0017,"dx":0.0017,"nx":28,"ny":28,"refTime":"2024-12-06T03:00:00:Z","depth":"2","parameterNumber":3,"parameterNumberName":"V-component_of_CURRENTS"},"data":[0,0,0,0,0,0,0,0,0,0,0,0,0,0,0,0,0,0,0,0,0,0,0,0,0,0,0,0,0,0,0,0,0,0,0,0,0,0,0,0,0,0,0,0,0,0,0,0,0,0,0,0,0,0,0,0,0,0,-0.0135,-0.0136,0,-0.0174,-0.0174,-0.0175,-0.021,-0.021,-0.0211,-0.0211,-0.0262,-0.0263,-0.0264,0,0,0,0,0,0,0,0,0,0,0,0,0,-0.0101,-0.0102,-0.0135,-0.0136,-0.0136,-0.0174,-0.0174,-0.0175,-0.021,-0.021,-0.0211,-0.0211,-0.0262,-0.0263,-0.0264,0,0,0,0,0,0,0,0,0,0,0,0,0,-0.0127,-0.0102,-0.0135,-0.0157,-0.0159,-0.0174,-0.0174,-0.0175,-0.021,-0.021,-0.0211,-0.0211,-0.0261,-0.0263,-0.0264,-0.0267,0,0,-0.027,-0.027,0,0,0,0,0,0,0,0,-0.0126,-0.0129,-0.0153,-0.0155,-0.0158,-0.0186,-0.0181,-0.0206,-0.021,-0.0192,-0.0211,-0.0211,-0.0236,-0.024,-0.0249,-0.0269,-0.0271,-0.027,-0.0271,-0.0271,-0.0272,0,0,0,0,0,0,0,-0.0124,-0.0127,-0.0152,-0.0154,-0.0156,-0.0167,-0.0172,-0.0186,-0.0213,-0.0194,-0.0196,-0.0198,-0.0238,-0.0247,-0.025,-0.0272,-0.027,-0.0271,-0.0272,-0.0273,-0.0308,-0.0308,0,0,0,0,0,0,-0.0115,-0.0125,-0.0151,-0.0153,-0.014,-0.0168,-0.0172,-0.0178,-0.0213,-0.0218,-0.0197,-0.0199,-0.0244,-0.0248,-0.0252,-0.0263,-0.0271,-0.0273,-0.0274,-0.0308,-0.0308,-0.0308,0,0,0,0,0,0,-0.0114,-0.0117,-0.0149,-0.0139,-0.0143,-0.0168,-0.0174,-0.0178,-0.0195,-0.0215,-0.0221,-0.0209,-0.0244,-0.025,-0.0266,-0.0265,-0.0274,-0.0275,-0.0308,-0.0308,-0.0308,-0.0281,0,0,0,0,0,0,-0.0113,-0.0116,-0.0118,-0.0138,-0.0144,-0.0156,-0.0173,-0.0179,-0.0194,-0.0197,-0.0227,-0.0232,-0.0245,-0.0263,-0.0267,-0.0267,-0.0277,-0.0308,-0.0308,-0.0308,-0.0282,-0.028,-0.0278,0,0,0,0,0,-0.0112,-0.0107,-0.0118,-0.0121,-0.0145,-0.0155,-0.0159,-0.0179,-0.0194,-0.0197,-0.0217,-0.0231,-0.0265,-0.0264,-0.0269,-0.027,-0.0308,-0.0308,-0.0308,-0.0283,-0.028,-0.0278,0,0,0,0,0,0,-0.0092,-0.0111,-0.0123,-0.0125,-0.0139,-0.0161,-0.0164,-0.0181,-0.02,-0.0205,-0.023,-0.0236,-0.025,-0.0263,-0.0261,-0.028,-0.0289,-0.029,-0.0268,-0.0266,-0.0264,-0.0245,-0.0278,0,0,0,0,0,-0.0088,-0.0092,-0.0112,-0.0114,-0.0121,-0.0145,-0.0153,-0.0166,-0.0184,-0.0194,-0.0216,-0.0236,-0.0252,-0.0262,-0.0276,-0.0286,-0.0298,-0.029,-0.0288,-0.0287,-0.0275,-0.0298,-0.0297,-0.0308,-0.0308,-0.0308,0,0,-0.0082,-0.0092,-0.0095,-0.011,-0.0125,-0.0124,-0.0152,-0.016,-0.0161,-0.0196,-0.0206,-0.0231,-0.0253,-0.0263,-0.0271,-0.0276,-0.029,-0.0287,-0.0285,-0.0274,-0.0298,-0.0297,-0.0296,-0.0307,-0.0307,-0.0307,0,0,-0.0062,-0.008,-0.0075,-0.0084,-0.01,-0.0111,-0.0114,-0.0138,-0.0151,-0.0165,-0.0188,-0.0209,-0.0238,-0.0249,-0.026,-0.0256,-0.028,-0.0268,-0.0243,-0.0266,-0.0265,-0.0265,-0.0278,-0.0278,-0.0267,-0.0267,-0.0267,0,-0.0052,-0.0049,-0.0074,-0.007,-0.007,-0.0104,-0.0093,-0.011,-0.0135,-0.014,-0.0163,-0.0203,-0.0227,-0.0233,-0.0236,-0.0251,-0.0267,-0.025,-0.0263,-0.0263,-0.0263,-0.0276,-0.0277,-0.0265,-0.0265,-0.0266,-0.0266,0,-0.0026,-0.0026,-0.0023,-0.0028,-0.0032,-0.003,-0.005,-0.0059,-0.0084,-0.0102,-0.0122,-0.016,-0.0182,-0.0199,-0.0219,-0.0227,-0.024,-0.0259,-0.0267,-0.026,-0.0275,-0.0276,-0.0263,-0.0264,-0.0264,-0.0265,0,0,0.0005,-0.0002,-0.0002,0.0007,-0.0008,-0.0005,-0.0006,-0.0012,-0.0008,-0.005,-0.0049,-0.0094,-0.0124,-0.0137,-0.017,-0.0194,-0.0214,-0.0226,-0.0228,-0.0234,-0.0262,-0.0268,-0.0271,-0.0242,-0.0242,-0.0242,-0.0272,0,0.0035,0.0056,0.0044,0.0068,0.0079,0.0056,0.0061,0.005,0.0027,0.0018,-0.003,-0.0048,-0.0098,-0.0113,-0.0145,-0.0192,-0.0218,-0.0204,-0.027,-0.0272,-0.0275,-0.0272,-0.0254,-0.028,-0.0274,-0.0274,-0.0274,0,0.0069,0.008,0.0107,0.0122,0.0125,0.0131,0.0139,0.014,0.0116,0.0094,0.0061,0.0023,-0.0014,-0.0064,-0.0141,-0.0132,-0.0192,-0.0236,-0.0238,-0.0252,-0.0281,-0.0287,-0.0283,-0.0277,-0.0277,-0.0277,-0.0277,0,0.0113,0.0129,0.0155,0.0158,0.0165,0.0173,0.0174,0.0161,0.0174,0.014,0.0141,0.0082,0.0061,-0.0024,-0.0117,-0.0133,-0.0199,-0.0234,-0.0293,-0.0294,-0.0293,-0.0294,-0.0289,-0.0289,-0.0289,-0.0289,-0.0289,0,0.0157,0.0178,0.0175,0.0189,0.0225,0.0211,0.024,0.0231,0.023,0.0258,0.0181,0.0194,0.0067,0.0015,-0.0087,-0.0186,-0.0179,-0.0281,-0.0302,-0.0284,-0.0283,-0.0293,-0.0293,-0.029,-0.029,-0.029,-0.0289,0,0.0199,0.0197,0.0229,0.0238,0.0246,0.0267,0.0289,0.0314,0.0296,0.0332,0.0326,0.0282,0.021,0.0088,-0.0035,-0.0134,-0.0237,-0.0276,-0.024,-0.0257,-0.0325,-0.0324,-0.0347,-0.0348,-0.0348,-0.0348,-0.0349,0,0.0222,0.0243,0.0266,0.029,0.0293,0.0319,0.0346,0.0345,0.0381,0.0397,0.0432,0.0376,0.0356,0.0173,-0.0011,-0.0183,-0.0218,-0.0288,-0.0322,-0.0313,-0.0331,-0.0329,-0.0326,-0.0311,-0.0311,-0.0311,-0.0311,0,0.027,0.0272,0.0297,0.0344,0.0375,0.0417,0.0456,0.0501,0.0516,0.0545,0.0594,0.0581,0.0411,0.025,0.0004,-0.0119,-0.0263,-0.0293,-0.0291,-0.0298,-0.0281,-0.0298,-0.0297,-0.031,-0.031,-0.031,-0.031,-0.031,0.0303,0.0327,0.0357,0.0405,0.0447,0.0511,0.0554,0.0612,0.0681,0.0736,0.0724,0.0699,0.051,0.0205,-0.0008,-0.0247,-0.0244,-0.0336,-0.0335,-0.0335,-0.0324,-0.0309,-0.0341,-0.0341,-0.0341,-0.0341,-0.0342,0,0.0348,0.0372,0.0419,0.0473,0.0527,0.0539,0.063,0.0676,0.0767,0.0812,0.0838,0.0668,0.0483,0.0253,-0.0093,-0.0295,-0.0319,-0.0366,-0.0349,-0.0348,-0.0347,-0.0337,-0.0357,-0.0358,-0.0358,-0.0359,0,0,0.0372,0.0422,0.0441,0.053,0.057,0.0644,0.0697,0.0773,0.0822,0.0866,0.0853,0.0822,0.0554,0.0307,0.0033,-0.0166,-0.0218,-0.0211,-0.0178,-0.0125,-0.0122,-0.0308,-0.0288,0,0,0,0,0]}],[{"header":{"parameterUnit":"m.s-1","parameterCategory":2,"la1":30.2991,"la2":30.254,"lo1":-89.0895,"lo2":-89.0444,"dy":0.0017,"dx":0.0017,"nx":28,"ny":28,"refTime":"2024-12-06T03:00:00:Z","depth":"4","parameterNumber":2,"parameterNumberName":"U-component_of_CURRENTS"},"data":[0,0,0,0,0,0,0,0,0,0,0,0,0,0,0,0,0,0,0,0,0,0,0,0,0,0,0,0,0,0,0,0,0,0,0,0,0,0,0,0,0,0,0,0,0,0,0,0,0,0,0,0,0,0,0,0,0,0,0.1254,0.1255,0,0.1314,0.1315,0.1316,0.1371,0.1372,0.1372,0.1373,0.1442,0.1444,0.1445,0,0,0,0,0,0,0,0,0,0,0,0,0,0.1189,0.119,0.1254,0.1255,0.1256,0.1314,0.1315,0.1316,0.1371,0.1372,0.1373,0.1373,0.1442,0.1443,0.1445,0,0,0,0,0,0,0,0,0,0,0,0,0,0.1229,0.119,0.1254,0.1291,0.1295,0.1314,0.1315,0.1316,0.1371,0.1372,0.1373,0.1374,0.1442,0.1443,0.1445,0.1434,0,0,0.145,0.1451,0,0,0,0,0,0,0,0,0.1227,0.1232,0.1285,0.1288,0.1293,0.1337,0.1318,0.1356,0.137,0.1341,0.1373,0.1374,0.1408,0.1412,0.142,0.1437,0.144,0.1451,0.1452,0.1452,0.1453,0,0,0,0,0,0,0,0.1224,0.1229,0.1278,0.1285,0.129,0.1305,0.1312,0.1325,0.1367,0.1344,0.1348,0.1355,0.141,0.1418,0.1422,0.1441,0.145,0.1452,0.1453,0.1454,0.1543,0.1544,0,0,0,0,0,0,0.1217,0.1227,0.1276,0.1279,0.1263,0.1305,0.1313,0.1321,0.1367,0.1375,0.1354,0.1358,0.1415,0.142,0.1425,0.1496,0.1452,0.1454,0.1455,0.1542,0.1543,0.1545,0,0,0,0,0,0,0.1215,0.122,0.1273,0.1255,0.1263,0.1305,0.1314,0.1322,0.136,0.1375,0.1384,0.1388,0.1416,0.1422,0.1466,0.1496,0.1455,0.1456,0.154,0.1542,0.1544,0.1586,0,0,0,0,0,0,0.1213,0.1219,0.1237,0.1254,0.1264,0.1303,0.1313,0.1322,0.1361,0.1367,0.1406,0.1412,0.1417,0.1463,0.1467,0.1498,0.1458,0.1539,0.1541,0.1543,0.1583,0.1589,0.1594,0,0,0,0,0,0.121,0.1224,0.1237,0.1244,0.1281,0.1304,0.1311,0.1343,0.1362,0.1381,0.1412,0.1412,0.1482,0.1466,0.147,0.1502,0.1537,0.154,0.1543,0.158,0.1588,0.1594,0,0,0,0,0,0,0.1207,0.1232,0.1246,0.1269,0.1294,0.1314,0.1339,0.1358,0.1397,0.1413,0.1426,0.1435,0.1484,0.1486,0.1468,0.1535,0.1511,0.1515,0.1537,0.1544,0.155,0.1549,0.1459,0,0,0,0,0,0.1212,0.1232,0.1254,0.1276,0.129,0.1319,0.1339,0.1361,0.139,0.141,0.1438,0.1468,0.1494,0.1515,0.1536,0.157,0.1572,0.1594,0.16,0.1605,0.1609,0.1636,0.1645,0.1555,0.1555,0.1555,0,0,0.1218,0.1234,0.1247,0.1278,0.1302,0.1325,0.1335,0.1372,0.1401,0.141,0.1468,0.149,0.1508,0.1551,0.1573,0.1561,0.1633,0.1609,0.1613,0.1614,0.164,0.1649,0.1657,0.1557,0.1556,0.1556,0,0,0.1227,0.1254,0.1271,0.1294,0.1332,0.1349,0.1365,0.1402,0.1434,0.148,0.1498,0.1539,0.158,0.1601,0.1614,0.1662,0.1662,0.1675,0.1707,0.1734,0.1741,0.1748,0.1765,0.1772,0.1679,0.168,0.168,0,0.1236,0.1258,0.1281,0.1303,0.1327,0.1361,0.1387,0.1418,0.1469,0.1498,0.1508,0.1583,0.1601,0.165,0.1672,0.1676,0.1689,0.1678,0.1741,0.1748,0.1754,0.1769,0.1777,0.1682,0.1682,0.1681,0.1681,0,0.1249,0.1279,0.1293,0.1332,0.136,0.139,0.1429,0.1472,0.1512,0.1542,0.161,0.1638,0.1683,0.1698,0.1703,0.1759,0.1754,0.1743,0.1721,0.1765,0.1779,0.1786,0.1685,0.1684,0.1684,0.1683,0,0,0.1235,0.1291,0.13,0.1325,0.1381,0.1401,0.1458,0.1511,0.1554,0.1609,0.1663,0.1716,0.1741,0.1757,0.1774,0.18,0.1856,0.1798,0.1798,0.181,0.1918,0.1818,0.1816,0.1861,0.1863,0.1864,0.1911,0,0.1242,0.1282,0.1314,0.1363,0.1386,0.1439,0.1486,0.1543,0.1594,0.1655,0.17,0.1757,0.1761,0.1794,0.1823,0.1852,0.1878,0.1844,0.1877,0.1878,0.178,0.1822,0.1869,0.1917,0.1919,0.192,0.1921,0,0.1239,0.1269,0.1315,0.1381,0.1398,0.1439,0.1521,0.1568,0.1654,0.1698,0.1761,0.1798,0.1864,0.1852,0.1922,0.1905,0.1919,0.193,0.1931,0.1826,0.1791,0.1864,0.1934,0.1933,0.1932,0.1931,0.193,0,0.1202,0.1268,0.1307,0.1329,0.1408,0.1452,0.1504,0.1588,0.1634,0.1732,0.1776,0.185,0.1901,0.1934,0.1974,0.1957,0.2036,0.2009,0.1929,0.1922,0.1979,0.1971,0.205,0.205,0.205,0.205,0.205,0,0.1181,0.1215,0.1299,0.1319,0.1376,0.1442,0.1511,0.1574,0.1664,0.1716,0.1801,0.1845,0.1928,0.1982,0.1996,0.199,0.2058,0.194,0.1929,0.1996,0.199,0.1984,0.1976,0.2051,0.2051,0.2051,0.205,0,0.113,0.1185,0.1233,0.1326,0.1358,0.1402,0.1506,0.1549,0.1648,0.1719,0.1756,0.1864,0.1933,0.1997,0.2058,0.2011,0.2018,0.1998,0.2076,0.2069,0.1877,0.1871,0.1898,0.1895,0.1892,0.189,0.1888,0,0.1104,0.1125,0.1224,0.1256,0.1304,0.1377,0.1424,0.1529,0.1571,0.1711,0.1734,0.1845,0.1905,0.1907,0.1982,0.2006,0.1985,0.1972,0.1908,0.1875,0.1863,0.1861,0.1858,0.1884,0.1883,0.1883,0.1882,0,0.1055,0.1103,0.1144,0.1207,0.1264,0.1309,0.1387,0.1402,0.1522,0.1625,0.167,0.1712,0.1788,0.1835,0.1879,0.1887,0.1969,0.1944,0.1948,0.1888,0.1859,0.1849,0.1849,0.1873,0.1874,0.1875,0.1876,0,0.1023,0.1038,0.11,0.1146,0.121,0.1229,0.1273,0.1323,0.1374,0.1524,0.1535,0.1656,0.1763,0.1775,0.1812,0.1822,0.1787,0.1719,0.1735,0.1746,0.1677,0.1616,0.1551,0,0,0,0,0,0.0983,0.0992,0.1032,0.1073,0.1131,0.1167,0.1244,0.129,0.1398,0.1391,0.1458,0.1519,0.1577,0.164,0.1621,0.1753,0.1799,0.1723,0.173,0.1822,0.1833,0.1767,0,0,0,0,0,0,0.0956,0.0992,0.1004,0.1003,0.1017,0.1065,0.1109,0.118,0.1179,0.1298,0.1335,0.1434,0.1512,0.1575,0.1594,0.1615,0.1589,0.1803,0.1799,0.1816,0.1826,0.1834,0.177,0,0,0,0,0]},{"header":{"parameterUnit":"m.s-1","parameterCategory":2,"la1":30.2991,"la2":30.254,"lo1":-89.0895,"lo2":-89.0444,"dy":0.0017,"dx":0.0017,"nx":28,"ny":28,"refTime":"2024-12-06T03:00:00:Z","depth":"4","parameterNumber":3,"parameterNumberName":"V-component_of_CURRENTS"},"data":[0,0,0,0,0,0,0,0,0,0,0,0,0,0,0,0,0,0,0,0,0,0,0,0,0,0,0,0,0,0,0,0,0,0,0,0,0,0,0,0,0,0,0,0,0,0,0,0,0,0,0,0,0,0,0,0,0,0,0.0097,0.0096,0,0.0061,0.006,0.006,0.0034,0.0034,0.0033,0.0033,-0.0004,-0.0005,-0.0005,0,0,0,0,0,0,0,0,0,0,0,0,0,0.0113,0.0113,0.0097,0.0096,0.0096,0.0061,0.006,0.006,0.0034,0.0034,0.0033,0.0033,-0.0003,-0.0004,-0.0005,0,0,0,0,0,0,0,0,0,0,0,0,0,0.0094,0.0113,0.0097,0.0079,0.0077,0.0061,0.006,0.006,0.0034,0.0034,0.0033,0.0033,-0.0003,-0.0004,-0.0006,-0.0009,0,0,-0.0009,-0.001,0,0,0,0,0,0,0,0,0.0095,0.0093,0.0082,0.008,0.0078,0.0052,0.0053,0.0037,0.0034,0.0049,0.0033,0.0033,0.0016,0.0013,0.0005,-0.0011,-0.0012,-0.001,-0.001,-0.0011,-0.0011,0,0,0,0,0,0,0,0.0096,0.0094,0.0082,0.0082,0.008,0.0063,0.006,0.0049,0.0034,0.0048,0.0046,0.0044,0.0014,0.0007,0.0004,-0.0013,-0.001,-0.0011,-0.0011,-0.0012,-0.0034,-0.0034,0,0,0,0,0,0,0.0104,0.0096,0.0083,0.0081,0.0087,0.0063,0.006,0.006,0.0034,0.003,0.0044,0.0043,0.0009,0.0006,0.0003,0.0003,-0.0011,-0.0012,-0.0013,-0.0034,-0.0034,-0.0034,0,0,0,0,0,0,0.0105,0.0103,0.0084,0.0088,0.0084,0.0064,0.0064,0.006,0.0052,0.0031,0.0026,0.004,0.0009,0.0005,-0.0005,0.0001,-0.0013,-0.0014,-0.0034,-0.0034,-0.0034,-0.0001,0,0,0,0,0,0,0.0105,0.0104,0.0105,0.0088,0.0084,0.0079,0.0064,0.0059,0.0051,0.0049,0.0026,0.0022,0.0008,-0.0003,-0.0006,-0.0001,-0.0015,-0.0034,-0.0034,-0.0034,-0.0002,0.0,0.0003,0,0,0,0,0,0.0106,0.0112,0.0106,0.0104,0.0088,0.0079,0.0075,0.0059,0.0051,0.005,0.0035,0.0023,-0.0003,-0.0004,-0.0008,-0.0003,-0.0035,-0.0034,-0.0034,-0.0003,-0.0,0.0003,0,0,0,0,0,0,0.012,0.011,0.0102,0.0105,0.0094,0.0075,0.0073,0.0061,0.0048,0.0047,0.0025,0.002,0.0014,0.0001,0.0001,-0.0008,-0.0021,-0.0021,0.0004,0.0007,0.0009,0.0017,-0.0016,0,0,0,0,0,0.0124,0.0126,0.0112,0.0114,0.0111,0.0092,0.0086,0.0076,0.0062,0.0056,0.0039,0.0024,0.0012,0.0006,-0.0007,-0.0011,-0.0028,-0.001,-0.0008,-0.0006,-0.0002,-0.0023,-0.0022,-0.0032,-0.0032,-0.0032,0,0,0.013,0.0125,0.0125,0.0117,0.0107,0.0108,0.0088,0.0083,0.0083,0.0055,0.0049,0.0031,0.0013,0.0007,0.0003,-0.0002,-0.0013,-0.0005,-0.0003,-0.0,-0.0023,-0.0022,-0.0021,-0.0032,-0.0032,-0.0032,0,0,0.0144,0.0139,0.0145,0.014,0.0131,0.0121,0.0122,0.0104,0.0096,0.0088,0.0069,0.0055,0.0036,0.0024,0.0016,0.0025,0.0001,0.002,0.004,0.0019,0.002,0.002,-0.0003,-0.0005,0.0022,0.0022,0.0022,0,0.0151,0.0158,0.0145,0.015,0.0151,0.013,0.0138,0.0128,0.0109,0.0104,0.0092,0.0062,0.0045,0.004,0.0041,0.0031,0.0013,0.0031,0.0023,0.0023,0.0023,-0.0001,-0.0004,0.0024,0.0024,0.0024,0.0023,0,0.0169,0.0175,0.018,0.0182,0.018,0.0185,0.0172,0.0167,0.0153,0.0139,0.0126,0.01,0.0082,0.0074,0.006,0.0053,0.0038,0.0028,0.0017,0.0026,-0.0,-0.0004,0.0026,0.0026,0.0025,0.0025,0,0,0.0184,0.0192,0.0194,0.0203,0.0199,0.0201,0.0204,0.0199,0.0202,0.0176,0.0174,0.0148,0.0127,0.0116,0.0095,0.0077,0.0057,0.0054,0.0052,0.0034,0.0007,-0.001,-0.0015,0.0044,0.0043,0.0043,-0.0011,0,0.0203,0.0224,0.0222,0.0244,0.0254,0.0243,0.0249,0.0241,0.0227,0.0219,0.0187,0.0177,0.0145,0.0139,0.0114,0.0074,0.005,0.0073,-0.0001,-0.0003,-0.0017,-0.0019,0.0042,-0.0014,-0.0015,-0.0015,-0.0016,0,0.0221,0.0235,0.026,0.0279,0.0283,0.0292,0.0301,0.0305,0.0287,0.0273,0.025,0.0224,0.0194,0.0167,0.0097,0.0112,0.0062,0.0027,0.0024,-0.0005,-0.0026,-0.0025,-0.0022,-0.0022,-0.0021,-0.0021,-0.002,0,0.0239,0.0263,0.0287,0.0292,0.0308,0.0318,0.0327,0.032,0.0331,0.0309,0.0309,0.0261,0.0244,0.0178,0.0099,0.0098,0.0019,0.0007,-0.0057,-0.0059,-0.0041,-0.0041,-0.0045,-0.0045,-0.0045,-0.0044,-0.0044,0,0.026,0.028,0.0298,0.0311,0.0343,0.0344,0.0372,0.0369,0.0374,0.0389,0.034,0.0336,0.0246,0.0191,0.0112,0.0016,0.0024,-0.0054,-0.0073,-0.0027,-0.0024,-0.0044,-0.0043,-0.0046,-0.0046,-0.0046,-0.0045,0,0.0273,0.0285,0.0315,0.034,0.0353,0.0375,0.041,0.043,0.0426,0.0445,0.0443,0.0394,0.0316,0.0219,0.0111,0.0038,-0.0053,-0.009,-0.0033,-0.0048,-0.012,-0.0117,-0.0164,-0.0165,-0.0166,-0.0167,-0.0167,0,0.0281,0.0298,0.0338,0.036,0.0374,0.0408,0.0436,0.0452,0.0474,0.0479,0.049,0.043,0.0379,0.0218,0.0106,-0.005,-0.0075,-0.0127,-0.0126,-0.0118,-0.0132,-0.0128,-0.0124,-0.0169,-0.0169,-0.0169,-0.017,0,0.0296,0.031,0.0335,0.0383,0.0417,0.0459,0.0499,0.0521,0.0541,0.0543,0.0528,0.0445,0.0353,0.0221,0.0096,-0.0016,-0.0095,-0.0137,-0.0136,-0.0135,-0.0125,-0.0137,-0.0131,-0.0173,-0.0172,-0.0172,-0.0172,0,0.0307,0.0325,0.0359,0.04,0.0448,0.0493,0.0515,0.0542,0.0565,0.0571,0.0564,0.0466,0.0411,0.0238,0.0125,0.001,-0.0022,-0.0063,-0.0066,-0.0064,-0.0024,0.0005,-0.002,0,0,0,0,0,0.0316,0.0336,0.0375,0.0418,0.0467,0.0495,0.055,0.0568,0.059,0.0586,0.0578,0.0492,0.0326,0.0255,0.0137,0.0096,-0.0051,-0.0048,-0.0101,-0.0189,-0.0186,-0.0158,0,0,0,0,0,0,0.032,0.0356,0.0371,0.0425,0.0457,0.0513,0.055,0.0569,0.0566,0.0572,0.0489,0.0451,0.0291,0.0392,0.0131,0.0096,0.0043,-0.0123,-0.0126,-0.0191,-0.0188,-0.0185,-0.0155,0,0,0,0,0]}]]